Location: Barcelona
(41.3829°N, 2.1774°E)
Time: 14:51:07
(UTC+00:00)

ISS - Pass Details

Date: 16 July 2024
Orbit: 410 x 424 km, 51.6° (Epoch: 14 July)

Event Time Altitude Azimuth Distance (km) Brightness Sun altitude
Rises 22:37:27 0° 309° (NW) 2,342 1.0 -24.8°
Reaches altitude 10° 22:39:57 10° 328° (NNW) 1,480 0.0 -24.9°
Maximum altitude 22:42:26 19° 17° (NNE) 1,041 -1.2 -25.1°
Enters shadow 22:43:08 18° 34° (NE) 1,080 -1.3 -25.1°
